Location: Red Pond
(18.0358°N, 63.0263°W)
Time: 00:58:15
(UTC+00:00)

Daily predictions for brighter satellites

Satellite Brightness Start Highest point End
(mag) Time Altitude Azimuth Time Altitude Azimuth Time Altitude Azimuth
ADEOS Rocket 3.9 00:09:09 42° WSW 00:09:09 42° WSW 00:13:16 10° SSW
Cosmos 2322 Rocket 4.0 00:08:50 10° SSW 00:10:59 24° SSW 00:10:59 24° SSW
Centaur D-1A AC-31 4.2 00:24:30 10° WNW 01:02:44 - E 00:24:36 11° WNW
Centaur D-1AR AC-36 3.6 00:14:03 10° W 00:29:47 56° W 00:29:47 56° W
Atlas 2A Centaur Rocket 4.2 07:39:39 71° NNW 07:39:48 71° N 08:21:38 10° ENE
H-2A ROCKET BODY 4.4 07:38:41 51° NNW 07:41:23 57° NNE 08:46:01 10° E
CZ-3B R/B 2.5 08:01:52 51° SSE 08:02:06 52° SSE 08:06:39 10° E
Atlas Centaur 2 4.0 08:12:22 11° NE 08:12:22 11° NE 08:12:33 10° NE
BREEZE-M DEB (TANK) 4.4 08:14:18 32° ESE 08:14:18 32° ESE 08:17:33 10° SE
OAO 3 Copernicus 4.5 08:21:16 66° SE 08:21:16 66° SE 08:26:13 10° ENE
Hubble Space Telescope 3.1 08:26:12 16° S 08:26:12 16° S 08:27:28 10° SSE
Centaur D-1AR AC-39 2.1 08:27:40 59° N 08:27:52 60° N 08:36:34 10° E
ASTRO E2 3.9 08:28:53 36° NE 08:28:53 36° NE 08:31:56 10° E
CZ-4B R/B 4.4 08:25:30 10° NNE 08:29:57 68° E 08:34:19 10° S
STARLINK-75 4.1 08:31:50 55° SSE 08:32:14 58° SE 08:36:18 10° NE
Cosmos 773 Rocket 3.9 08:32:00 52° NNW 08:33:19 89° W 08:38:37 10° SSE
STARLINK-54 4.3 08:32:44 38° S 08:33:53 51° SE 08:37:54 10° NE
Cosmos 2058 3.9 08:32:25 10° SSE 08:36:27 48° E 08:40:30 10° NNE
Cosmos 1076 Rocket 3.6 08:32:24 10° S 08:36:45 74° E 08:41:05 10° N
STARLINK-37 4.1 08:35:50 40° S 08:37:01 58° SE 08:41:06 10° NE
STARLINK-24 4.1 08:37:26 38° S 08:38:47 60° SE 08:42:52 10° NE
STARLINK-55 4.1 08:37:18 35° S 08:38:47 57° SE 08:42:50 10° NE
STARLINK-34 4.0 08:39:09 39° S 08:40:30 63° SE 08:44:34 10° NE
STARLINK-81 4.1 08:39:57 27° SSW 08:41:58 57° SE 08:46:01 10° NE
USA 229 DEB 4.5 08:42:03 34° WSW 08:42:20 34° WSW 08:49:03 10° S
USA 229 4.5 08:42:05 34° WSW 08:42:26 34° WSW 08:49:10 10° S
Geosat 4.2 08:39:23 10° S 08:44:12 47° WSW 08:44:16 47° WSW
Cosmos 1898 Rocket 3.3 08:39:47 10° SSW 08:44:57 77° WNW 08:50:10 10° N
NOSS 3-3 (A) 4.0 08:45:13 43° NW 08:45:13 43° NW 08:50:40 10° N
NOSS 3-3 (C) 4.0 08:45:16 43° WNW 08:45:16 43° WNW 08:50:46 10° N
STARLINK-77 4.0 08:43:10 27° SSW 08:45:16 64° SE 08:49:22 10° NE
STARLINK-25 3.9 08:44:50 27° SSW 08:46:59 67° SE 08:51:05 10° NE
NOSS 3-1 (A) 4.3 08:43:26 29° NW 08:48:04 60° WSW 08:56:46 10° S
STARLINK-71 3.6 08:47:13 37° SSW 08:48:48 82° SE 08:52:57 10° NE
Cosmos 1538 Rocket 3.9 08:45:47 23° NNW 08:49:14 85° WSW 08:54:34 10° S
STARLINK-79 3.7 08:48:04 26° SSW 08:50:19 75° SE 08:54:26 10° NE
ASTEX 1 3.9 08:45:50 10° SSE 08:50:39 59° E 08:55:30 10° N
Cosmos 1656 3.5 08:47:57 23° NNW 08:51:26 85° WSW 08:56:54 10° SSE
STARLINK-78 3.6 08:49:40 26° SSW 08:51:55 79° SE 08:56:03 10° NE
STARLINK-49 3.5 08:52:53 24° SW 08:55:17 87° ESE 08:59:25 10° NE
STARLINK-27 3.5 08:54:28 24° SW 08:56:54 89° NW 09:01:02 10° NE
ASC 2 Rocket 4.0 08:53:25 31° WNW 08:57:10 73° NNE 09:02:33 10° E
CZ-4B R/B 3.8 08:59:52 28° SW 08:59:52 28° SW 09:01:54 10° SSW
STARLINK-74 3.5 08:56:03 23° SW 08:58:34 86° NW 09:02:42 10° NE
Cosmos 1937 Rocket 3.3 08:53:36 10° SSW 08:58:46 81° WNW 09:03:55 10° N
Milstar 3 2.9 08:54:04 28° WNW 08:58:57 88° SSW 09:05:39 10° ESE
STARLINK-39 3.4 08:57:42 23° SW 09:00:14 81° NW 09:04:22 10° NE
Cosmos 1153 Rocket 4.3 08:54:52 10° S 09:01:01 74° W 09:07:08 10° N
STARLINK 3.4 08:59:19 22° SW 09:01:53 77° NW 09:06:01 10° NNE
STARLINK-42 3.5 09:00:26 25° SW 09:02:42 70° NW 09:06:50 10° NNE
STARLINK-21 3.5 09:00:55 22° SW 09:03:29 73° NW 09:07:37 10° NNE
CZ-2C R/B 3.7 09:06:30 19° WSW 09:06:30 19° WSW 09:08:10 10° SW
Abrixas rocket 2.2 09:04:46 49° NNW 09:04:46 49° NNW 09:07:21 10° NNE
Cosmos 2221 2.4 09:00:38 10° N 09:05:00 79° W 09:09:22 10° S
SL-8 R/B 4.4 09:03:56 30° W 09:05:03 35° SW 09:09:22 10° SSE
Milstar 3 Cent rocket 3.0 09:01:02 25° WNW 09:06:34 61° SSW 09:12:01 10° SE
STARLINK-45 3.6 09:05:02 27° WSW 09:07:04 55° NW 09:11:07 10° NNE
STARLINK-76 3.6 09:07:23 19° SW 09:10:10 59° NW 09:14:15 10° NNE
STARLINK 3.6 09:09:03 18° SW 09:11:53 56° NW 09:15:57 10° NNE
SJ-12 4.2 09:07:50 10° NNE 09:11:58 73° ESE 09:16:05 10° S
Delta 2 Rocket 4.0 09:10:24 29° W 09:12:13 43° NNW 09:17:01 10° NE
Cosmos 1842 Rocket 3.9 09:10:01 21° NW 09:12:20 39° W 09:16:22 10° SSW
Lacrosse 4 Rocket 1.8 09:11:08 27° NW 09:12:54 43° WSW 09:16:58 10° S
STARLINK-32 3.7 09:10:36 18° SW 09:13:31 53° NW 09:17:33 10° NNE
Yuri Rocket 3.8 09:11:18 25° WNW 09:13:41 41° NNW 09:17:53 10° NE
Cosmos 2173 Rocket 4.2 09:07:48 10° S 09:14:08 75° E 09:20:22 10° N
SJ 16-02 1.8 09:10:53 10° SW 09:14:53 35° WNW 09:18:54 10° N
STARLINK-40 3.7 09:12:12 17° WSW 09:15:09 51° NW 09:19:10 10° NNE
Cosmos 2123 Rocket 4.3 09:09:42 10° NNW 09:15:28 42° W 09:21:17 10° SSW
STARLINK-44 3.8 09:13:50 16° WSW 09:16:51 48° NW 09:20:51 10° NNE
Meteor PRIRODA 4.1 09:14:53 10° N 09:18:15 36° WNW 09:21:35 10° SW
Cosmos 1980 Rocket 3.5 09:13:08 10° N 09:18:29 41° ENE 09:23:46 10° SE
STARLINK-36 3.8 09:15:27 16° WSW 09:18:31 46° NW 09:22:30 10° NNE
USA 267 3.2 09:13:12 10° NE 09:19:45 85° NW 09:26:18 10° SW
GPS 2-18 Rocket1 3.3 09:21:06 23° W 09:23:29 63° N 09:27:27 10° ENE
GPS 2-12 Rocket1 3.0 09:20:46 22° WNW 09:23:38 73° N 09:28:05 10° E
Cosmos 2151 2.9 09:19:43 10° S 09:24:00 89° WNW 09:28:18 10° N
Cosmos 1892 2.5 09:21:01 10° S 09:24:49 71° W 09:28:35 10° N
STARLINK-35 4.1 09:21:49 13° WSW 09:25:07 38° NW 09:28:59 10° NNE
STARLINK-51 4.2 09:23:29 13° WSW 09:26:49 36° NW 09:30:38 10° NNE
ATLAS CENTAUR R/B 1.8 09:22:26 10° SSW 09:27:18 89° WNW 09:32:14 10° NNE
STARLINK-30 4.2 09:25:05 12° WSW 09:28:29 35° NW 09:32:16 10° NNE
Cosmos 1408 3.6 09:24:58 10° SSE 09:28:33 49° E 09:32:07 10° NNE
Cosmos 1484 Rocket 3.2 09:24:54 10° N 09:28:40 40° WNW 09:32:25 10° SSW
Centaur AC-42 3.3 09:25:14 10° WSW 09:29:38 72° SSE 09:49:43 10° ENE
Cosmos 1869 3.2 09:25:48 10° N 09:29:43 88° E 09:33:39 10° S
STARLINK-33 4.3 09:26:41 12° WSW 09:30:09 33° NW 09:33:54 10° NNE
COBE Rocket 4.0 09:26:36 10° S 09:31:47 79° W 09:36:56 10° NNW
STARLINK-50 4.4 09:28:19 11° WSW 09:31:50 32° NW 09:35:33 10° NNE
APEX 3.6 09:28:25 10° NNW 09:32:06 72° ENE 09:36:47 10° SSE
STARLINK-56 4.5 09:31:32 10° WSW 09:35:09 29° NW 09:38:46 10° NNE
Cosmos 2369 3.9 09:30:45 10° NNW 09:36:18 53° WSW 09:41:50 10° S
COSMOS 2487 3.1 09:33:01 10° S 09:36:25 57° ESE 09:39:48 10° NNE
Meteor 2-2 Rocket 4.3 09:31:19 10° NNW 09:36:49 57° W 09:42:20 10° S
Cosmos 2298 Rocket 4.0 09:32:04 10° SSW 09:37:22 83° WNW 09:42:42 10° NNE
Okean O Rocket 1.5 09:36:51 10° N 09:41:10 76° WNW 09:45:30 10° SSW
Cosmos 2112 Rocket 4.1 09:41:42 10° NNW 09:47:02 88° ENE 09:52:23 10° SSE
Cosmos 2360 4.2 09:41:56 10° NNW 09:47:39 76° WSW 09:53:21 10° S
ARIANE 5 R/B 4.4 09:38:41 10° WSW 09:48:22 24° SSW 09:51:33 10° SSE
CZ-3B R/B 3.6 09:45:50 10° WNW 09:50:04 53° NNE 10:05:10 10° E
CZ-4B R/B 3.2 09:45:27 10° N 09:50:50 68° WNW 09:56:20 10° SSW
USA 116 4.4 09:47:56 10° SSE 09:50:53 43° ENE 09:53:51 10° N
Cosmos 372 Rocket 4.0 09:46:24 10° SSW 09:51:33 67° WNW 09:56:40 10° N
Cosmos 1825 2.3 09:48:20 10° S 09:52:05 79° E 09:55:50 10° N
SWIFT 3.2 09:49:01 10° WSW 09:53:09 49° SSE 09:57:16 10° E
ALOS 2.6 09:49:23 10° N 09:53:46 43° WNW 09:58:10 10° SSW
Cosmos 1680 Rocket 3.6 09:49:31 10° NNW 09:54:45 62° WSW 09:59:58 10° S
SKYMED 2 3.6 09:51:33 10° S 09:55:51 69° W 10:00:09 10° NNW
Cosmos 2278 4.0 09:51:07 10° NNW 09:56:35 48° WSW 10:02:01 10° S
